Погода в Вострецово

Россия / Хабаровский край     59°17′25″N   142°52′49″E
темп.,
°C
ветер,
м/с
пор.,
м/с
влажн.,
%
обл.,
%
осадки,
мм/ч
давл.,
гПа
погр.,
м
25 января, пн
пн2501:00−23ссз4783100 0.0 1024260
04:00−26ссз348375 0.0 102674
07:00−28ссз45792 0.0 1027103
10:00−28ссз57771 0.0 1028138
13:00−27ссз58730 0.0 1029207
16:00−28ссз56780 0.0 1029111
19:00−29ссз45770 0.0 103195
22:00−30ссз46760 0.0 1031104
26 января, вт
вт2601:00−30ссз46760 0.0 1031100
04:00−29с46750 0.0 103099
07:00−28с457239 0.0 1030118
10:00−28с457354 0.0 1029104
13:00−25с357121 0.0 1027152
16:00−26ссз227811 0.0 102623
19:00−26ссв23730 0.0 102729
22:00−26с34730 0.0 102651
27 января, ср
ср2701:00−26с44720 0.0 102657
04:00−26с44700 0.0 102656
07:00−26с45710 0.0 102561
10:00−25с44720 0.0 102574
13:00−22с467443 0.0 1023158
16:00−22с347767 0.0 102244
19:00−22с337697 0.0 102233
22:00−23с567655 0.0 102069
28 января, чт
чт2801:00−23с56745 0.0 101981
04:00−23с57753 0.0 101796
07:00−23с69732 0.0 1016111
10:00−23ссз46741 0.0 1015102
13:00−21ссз47730 0.0 1014156
16:00−21ссз34730 0.0 101246
19:00−22ссз34690 0.0 101335
22:00−23с45670 0.0 101359
29 января, пт
пт2901:00−24с44700 0.0 101462
04:00−25с45700 0.0 101460
07:00−25с45720 0.0 101665
10:00−26с44740 0.0 101786
13:00−24с34740 0.0 1018136
16:00−24с22790 0.0 101921
19:00−25с23780 0.0 102122
22:00−26с33780 0.0 102228